Location: Le Domaine
(47.0333°N, 76.5361°W)
Time: 05:12:18
(UTC-05:00)

S-56A Canister/Altair - Pass Details

Date: 21 November 2019
Orbit: 633 x 2500 km, 38.9° (Epoch: 09 December)

Event Time Altitude Azimuth Distance (km) Brightness Sun altitude
Rises 17:11:25 0° 243° (WSW) 5,405 14.3 -7.9°
Reaches altitude 10° 17:15:35 10° 238° (WSW) 4,119 12.8 -8.6°
Maximum altitude 17:25:06 44° 172° (S) 1,769 9.4 -10.1°
Drops below altitude 10° 17:31:33 10° 102° (ESE) 2,803 9.9 -11.1°
Enters shadow 17:31:43 - 102° (ESE) 2,851 9.9 -11.2°
Sets 17:33:53 0° 96° (E) 3,561 - -11.5°
